Regional Weather Roundup
Issued by NWS San Angelo, TX

Home | Current Version | Previous Version | Text Only | Print | Product List | Glossary On
Versions: 1 2 3 4 5 6 7 8 9 10 11 12 13 14 15 16 17 18 19 20 21 22 23 24 25 26 27 28 29 30 31 32 33 34 35 36 37 38 39 40 41 42 43 44 45 46 47 48 49 50
000
ASUS44 KSJT 111410
RWRSJT
WEST CENTRAL TEXAS REGIONAL WEATHER ROUNDUP
NATIONAL WEATHER SERVICE SAN ANGELO TX
800 AM CST SUN DEC 11 2016

NOTE: "FAIR" INDICATES FEW OR NO CLOUDS BELOW 12,000 FEET WITH NO
SIGNIFICANT WEATHER AND/OR OBSTRUCTIONS TO VISIBILITY.

TXZ049-054-064>066-071>073-076>078-098-099-113-114-127-128-139-140-
154-155-168>170-111500
...LOCATIONS ACROSS WEST CENTRAL TEXAS...

CITY           SKY/WX    TMP DP  RH WIND       PRES   REMARKS
SAN ANGELO     CLOUDY    50  47  89 SW18G26   29.96R
ABILENE        CLOUDY    52  49  89 S22G35    29.89S
DYESS AFB      CLOUDY    52  47  81 S21       29.86R
JUNCTION       CLOUDY    54  53  97 W7        30.00F
SWEETWATER     CLOUDY    49  47  95 S16       29.90S
BROWNWOOD      CLOUDY    59  55  88 S15G23    29.95S
COLEMAN        CLOUDY    57  52  84 SW16G23   29.93F
SONORA         FOG       48  48 100 S9        30.06R VSB 1
OZONA          FOG       43  43 100 MISG      30.03S VSB 1/4
BRADY          NOT AVBL
$$

TEXAS PANHANDLE/OKLAHOMA PANHANDLE

CITY           SKY/WX    TMP DP  RH WIND       PRES   REMARKS
AMARILLO       CLOUDY    49  31  49 W12       29.74R
BORGER         CLOUDY    47  29  49 N14       29.73R
CANADIAN       CLOUDY    38  33  81 W5        29.70R WCI  35
DALHART        CLOUDY    41  26  55 NW6       29.76R WCI  37
DUMAS          CLOUDY    36  26  65 W7        29.74R WCI  30
GUYMON         NOT AVBL
HEREFORD       CLOUDY    50  32  50 W15       29.76R
PAMPA          CLOUDY    44  32  63 NW10      29.72R WCI  38
PERRYTON       CLOUDY    35  30  81 NW10      29.71R WCI  27
$$

SOUTHERN PANHANDLE/SOUTH PLAINS/ROLLING PLAINS

CITY           SKY/WX    TMP DP  RH WIND       PRES   REMARKS
LUBBOCK        CLOUDY    45  36  70 SW13      29.80R WCI  39
SNYDER         FOG       38  38  99 S6        29.89S VSB<1/4 WCI  33
CHILDRESS      CLOUDY    43  38  82 S13       29.74F WCI  36
SEMINOLE       CLOUDY    43  38  84 SW13      29.89F WCI  36
$$

PERMIAN BASIN

CITY           SKY/WX    TMP DP  RH WIND       PRES   REMARKS
MIDLAND        CLOUDY    44  40  85 SW8       29.91R WCI  39
ODESSA         CLOUDY    44  39  82 SW9       29.92R WCI  39
WINK           CLOUDY    37  37 100 S8        29.91S WCI  31
$$

FAR WEST/SOUTHWEST MOUNTAINS/TRANS PECOS

CITY           SKY/WX    TMP DP  RH WIND       PRES   REMARKS
ALPINE         CLOUDY    53  39  58 SW21G26   30.08S
DRYDEN           N/A     41  41 100 CALM      30.01S
EL PASO        MOCLDY    54  30  40 S12       30.04S
FORT STOCKTON  NOT AVBL
GUADALUPE PASS CLOUDY    47  34  60 SW37G47   29.99S WCI  37
MARFA          FOG       30  30 100 SE3       30.09S VSB 3/4
PECOS          CLOUDY    38  36  92 E5        29.93S WCI  34
$$

DALLAS/FORT WORTH METROPLEX

CITY           SKY/WX    TMP DP  RH WIND       PRES   REMARKS
DFW AIRPORT    LGT RAIN  50  49  96 S16       29.92F FOG
FTW MEACHAM    CLOUDY    53  51  93 S14       29.92F FOG
DAL-EXECUTIVE  CLOUDY    50  50 100 S9G20     29.94F FOG
GRAND PRAIRIE  CLOUDY    50  50 100 S12G17    29.96  FOG
ADDISON        CLOUDY    50  50 100 S10G23    29.95F
MESQUITE       CLOUDY    50  46  87 S7        29.97F
LANCASTER      CLOUDY    51  48  90 S9        29.97F FOG
$$

NORTH CENTRAL TEXAS

CITY           SKY/WX    TMP DP  RH WIND       PRES   REMARKS
SHRMAN/DENISON CLOUDY    51  48  90 S23       29.90F
GAINESVILLE    CLOUDY    48  47  97 S13G18    29.90F FOG
BRIDGEPORT     CLOUDY    55  55 100 S9        29.90F
DENTON         CLOUDY    49  49 100 S14       29.91F FOG
WAXAHACHIE     FOG       49  49 100 S10       29.98F VSB 1/2
GRANBURY       CLOUDY    58  55  91 S15       29.93F
$$

WESTERN NORTH TEXAS

CITY           SKY/WX    TMP DP  RH WIND       PRES   REMARKS
WICHITA FALLS  CLOUDY    55  51  86 S22       29.79F
VERNON         CLOUDY    50  45  83 SW13      29.79S
BRECKENRIDGE   CLOUDY    59  52  77 SW21G29   29.85F
COMANCHE       CLOUDY    57  57 100 SW13G20   29.94R
$$

CENTRAL AND SOUTH CENTRAL TEXAS

CITY           SKY/WX    TMP DP  RH WIND       PRES   REMARKS
AUSTIN/BERGSTM DRZL/FOG  54  54 100 S9        30.02F VSB 1/4
WACO           CLOUDY    54  54 100 S14       29.99F FOG
HILLSBORO      FOG       51  50  99 S12       29.97F VSB 1/4
TEMPLE         FOG       53  52  96 S9        30.02R VSB 1/4
KILLEEN-GRAY   CLOUDY    56  56  99 S12       29.99S FOG
FORT HOOD      CLOUDY    54  54 100 S6        29.97S FOG
GEORGETOWN     CLOUDY    55  54  94 S10       30.01S FOG
LAGO VISTA     FOG       58  58  97 SW12G18   30.02R VSB 3/4
SAN MARCOS     FOG       52  50  93 SW9       30.04S VSB 1/2
NEW BRAUNFELS  FOG       53  52  96 SW7       30.03S VSB 1/4
RANDOLPH AFB   FOG       52  52 100 CALM      30.04S VSB 3/4
SAN ANTONIO    DRZL/FOG  52  51  97 CALM      30.04F VSB 1/2
STINSON        FOG       52  50  93 CALM      30.04F VSB 1/2
PLEASANTON     NOT AVBL
LA GRANGE      CLOUDY    61  60  97 S6        30.02S FOG
GIDDINGS       FOG       59  58  97 S8        30.06F VSB 1
$$

EAST TEXAS

CITY           SKY/WX    TMP DP  RH WIND       PRES   REMARKS
PARIS          CLOUDY    52  41  66 SE16      29.97F
CLARKSVILLE    NOT AVBL
TYLER          CLOUDY    56  50  80 S13G21    30.01S
LONGVIEW       CLOUDY    53  46  77 SE12      30.04R
PALESTINE      CLOUDY    58  55  89 S10       30.03S
NACOGDOCHES    CLOUDY    52  46  82 S9        30.05R
$$

TEXAS HILL COUNTRY AND EDWARDS PLATEAU

CITY           SKY/WX    TMP DP  RH WIND       PRES   REMARKS
LLANO          CLOUDY   N/A N/A N/A CALM      30.03F
HORSESHOE BAY  CLOUDY    62  59  90 SW6       30.01R
KERRVILLE      FOG       51  50  97 CALM      30.04S VSB 1
FREDERICKSBRG  CLOUDY    54  53  97 SW6       30.02S FOG
ROCKSPRINGS    FOG       50  48  93 S8        30.04F VSB 1/4
HONDO          CLOUDY    52  50  93 CALM      30.05S
UVALDE         CLOUDY    49  48  99 CALM      30.06S FOG
DEL RIO        CLOUDY    47  47 100 SE5       30.04F FOG
$$

SOUTHEAST TEXAS

CITY           SKY/WX    TMP DP  RH WIND       PRES   REMARKS
COLLEGE STN    CLOUDY    61  59  93 S14       30.03S
CALDWELL       NOT AVBL
CROCKETT       CLOUDY    57  54  88 S9        30.07F
BRENHAM        CLOUDY    64  63  96 S7        30.04S
HUNTSVILLE     MOCLDY    61  56  83 S10G17    30.03F
CONROE         CLOUDY    58  56  93 SE5       30.06F
HOUSTON BUSH   LGT RAIN  65  60  84 S8        30.08R
HOUSTON HOBBY  CLOUDY    67  62  84 SW10      30.08S
PERLAND        CLOUDY    68  62  81 S12       30.08F
WHARTON        CLOUDY    64  63  96 S5        30.07F
$$

THE UPPER TEXAS COAST

CITY           SKY/WX    TMP DP  RH WIND       PRES   REMARKS
ORANGE         CLOUDY    53  51  93 E8        30.14F
PORT ARTHUR    CLOUDY    58  54  86 E9        30.12S
GALVESTON      MOCLDY    67  63  87 S14       30.09S
ANGLETON       CLOUDY    70  64  81 S17       30.07F
BAY CITY       CLOUDY    68  64  86 S9        30.07F
$$

TEXAS COASTAL BEND, RIO GRANDE PLAINS DEEP SOUTH TEXAS

CITY           SKY/WX    TMP DP  RH WIND       PRES   REMARKS
VICTORIA       CLOUDY    60  59  96 SW3       30.07S FOG
BEEVILLE       CLOUDY    47  47 100 CALM      30.07S FOG
ROCKPORT       CLOUDY    57  56  96 CALM      30.08R FOG
PORT ARANSAS   CLOUDY    56  56 100 CALM      30.08R FOG
PORT LAVACA    CLOUDY    61  61 100 CALM      30.07S FOG
CORPUS CHRISTI CLOUDY    55  55 100 CALM      30.08S FOG
KINGSVILLE NAS CLOUDY    55  55 100 CALM      30.09R
COTULLA        FOG       50  48  93 S3        30.06F VSB 1/2
LAREDO         CLOUDY    50  49  96 SE3       30.08S
BROWNSVILLE    PTCLDY    54  52  93 NW7       30.11R
PORT ISABEL    CLEAR     54  52  93 CALM      30.09S
HEBBRONVILLE   FOG       51  50  98 CALM      30.08S VSB 1/2
MCALLEN        FOG       55  53  93 SE5       30.09S VSB 1/8
WESLACO        FOG       53  53  99 S6        30.08S VSB 1/4
FALFURRIAS     CLOUDY    53  52  96 CALM      30.08R VSB 3/4
EDINBURG       FOG       55  53  93 CALM      30.09S VSB 1/4
$$




USA.gov is the U.S. government's official web portal to all federal, state and local government web resources and services.